[Iaude] MPEC A14: 2023 QR105 [a=2.59,e=0.63,i=13.6,H=19.5,PHA]
    mpec at marsden.cfa.harvard.edu 
    mpec at marsden.cfa.harvard.edu
       
    Tue Jan  2 09:38:21 EST 2024
    
    
  
M.P.E.C. 2024-A14                               Issued 2024 January 2, 14:36 UT
     The Minor Planet Electronic Circulars contain information on unusual
         minor planets, routine data on comets and natural satellites,
         and occasional editorial announcements.  They are published
    on behalf of Division F of the International Astronomical Union by the
          Minor Planet Center, Smithsonian Astrophysical Observatory,
                          Cambridge, MA 02138, U.S.A.
			  
             Prepared using the Tamkin Foundation Computer Network
                              MPC at CFA.HARVARD.EDU
            URL https://www.minorplanetcenter.net/    ISSN 1523-6714
                                   2023 QR105                                   
Observations:
     K23QA5R 1C2019 09 04.48277 04 56 36.18 +00 54 26.5          21.2 GVEA014G96
     K23QA5R 1C2019 09 04.48794 04 56 37.62 +00 54 29.2          21.3 GVEA014G96
     K23QA5R 1C2019 09 04.49311 04 56 39.04 +00 54 31.1          21.4 GVEA014G96
     K23QA5R 1C2019 09 04.50287 04 56 41.79 +00 54 35.4          21.1 GVEA014G96
     K23QA5R  C2019 11 25.63679111 51 22.540+06 39 29.96         20.72GVEA014F52
     K23QA5R  C2019 11 25.64067011 51 23.383+06 39 29.47         20.42GVEA014F52
     K23QA5R  C2019 11 25.64453411 51 24.188+06 39 28.64         20.89GVEA014F52
     K23QA5R  C2020 02 04.62074014 22 57.332+08 35 27.77         21.37GVEA014F52
     K23QA5R  C2020 02 04.63263014 22 57.681+08 35 34.20         21.30GVEA014F52
     K23QA5R  C2020 02 04.64481414 22 58.012+08 35 40.30         21.42GVEA014F52
     K23QA5R  C2020 03 22.41877013 55 29.032+16 39 03.06         21.30GVEA014F51
     K23QA5R  C2020 03 22.43145013 55 27.866+16 39 08.61         21.96GVEA014F51
     K23QA5R  C2020 03 22.45680713 55 25.508+16 39 20.42         21.54GVEA014F51
     K23QA5R  C2020 04 27.30705813 06 05.038+16 59 55.81         22.29GVEA014F51
     K23QA5R  C2020 04 27.30886513 06 04.935+16 59 55.54         21.54GVEA014F51
     K23QA5R  C2020 04 29.44712613 04 07.655+16 47 28.35         22.00GVEA014F52
     K23QA5R  C2020 04 29.45956813 04 06.963+16 47 24.00         22.12GVEA014F52
     K23QA5R  C2020 04 29.48449213 04 05.592+16 47 14.52         22.22GVEA014F52
     K23QA5R  C2023 07 22.55354023 47 51.692-20 33 30.70         22.88GVEA014F51
     K23QA5R  C2023 07 22.56529623 47 52.044-20 33 37.44         22.79GVEA014F51
     K23QA5R  C2023 07 22.57704323 47 52.375-20 33 44.40         22.83GVEA014F51
     K23QA5R  C2023 07 22.58880123 47 52.730-20 33 51.52         23.24GVEA014F51
     K23QA5R  C2023 07 29.54920923 51 02.056-21 50 40.59         22.59GVEA014F51
     K23QA5R  C2023 07 29.55988023 51 02.265-21 50 48.68         23.05GVEA014F51
     K23QA5R  C2023 07 29.57056723 51 02.478-21 50 56.31         22.48GVEA014F51
     K23QA5R  C2023 07 29.58126023 51 02.698-21 51 03.81         22.30GVEA014F51
     K23QA5R* C2023 08 19.45456523 52 01.044-27 16 13.06         21.75wXEA014F52
     K23QA5R  C2023 08 19.47484623 52 00.572-27 16 35.98         21.49wXEA014F52
     K23QA5R  C2023 08 19.48497923 52 00.367-27 16 47.43         21.71wXEA014F52
     K23QA5R  C2023 08 19.50184023 51 59.961-27 17 06.46         22.26GVEA014F51
     K23QA5R  C2023 08 19.52238223 51 59.470-27 17 29.72         22.04GVEA014F51
     K23QA5R  C2023 08 19.54029423 51 59.039-27 17 50.11         21.97GVEA014F51
     K23QA5R  C2023 09 03.42021723 42 25.671-32 15 58.52         20.73GVEA014F52
     K23QA5R  C2023 09 03.43163023 42 24.961-32 16 12.51         20.94GVEA014F52
     K23QA5R  C2023 09 03.44304223 42 24.237-32 16 26.78         22.04GVEA014F52
     K23QA5R  C2023 09 15.48075423 27 49.358-36 14 43.45         21.22GVEA014F51
     K23QA5R 1C2024 01 01.05198223 59 59.258-10 28 53.18         20.0 rVEA014W84
     K23QA5R 1C2024 01 01.06369600 00 01.123-10 28 12.68         20.3 rVEA014W84
     K23QA5R 1C2024 01 01.07523600 00 02.938-10 27 33.44         21.1 rVEA014W84
     K23QA5R 1C2024 01 01.08706700 00 04.824-10 26 52.84         20.2 rVEA014W84
     K23QA5R |C2024 01 02.03829000 02 41.750-09 32 03.10         19.8 GVEA014807
     K23QA5R |C2024 01 02.04149000 02 42.250-09 31 52.70         19.8 GVEA014807
     K23QA5R |C2024 01 02.04469000 02 42.750-09 31 41.00         20.4 GVEA014807
     K23QA5R  C2024 01 02.22664800 03 13.349-09 21 21.03         19.97GVEA014F52
     K23QA5R  C2024 01 02.22746500 03 13.473-09 21 18.34         20.08GVEA014F52
Observer details:
807 Cerro Tololo Observatory, La Serena.  Observers T. Linder, R. Holmes, L.
    Horn.  0.61-m f/11 Ritchey-Chretien + CCD.
F51 Pan-STARRS 1, Haleakala.  Observers J. Herman, T. Lowe, P. Minguez, A.
    Schultz, I. Smith.  Measurers K. Chambers, T. de Boer, J. Fairlamb, H.
    Gao, M. Huber, C.-C. Lin, E. Magnier, Y. Ramanjooloo, R. Wainscoat, R.
    Weryk.  1.8-m Ritchey-Chretien + CCD.
F52 Pan-STARRS 2, Haleakala.  Observers J. Herman, T. Lowe, P. Minguez, A.
    Schultz, I. Smith, J. Bulger.  Measurers K. Chambers, T. de Boer, J.
    Fairlamb, H. Gao, M. Huber, C.-C. Lin, E. Magnier, Y. Ramanjooloo, R.
    Wainscoat, R. Weryk, S. Chastel.  1.8-m Ritchey-Chretien + CCD.
G96 Mt. Lemmon Survey.  Observer H. Groeller.  Measurers B. M. Africano, E. J.
    Christensen, G. A. Farneth, D. C. Fuls, A. R. Gibbs, A. D. Grauer, H.
    Groeller, R. A. Kowalski, S. M. Larson, G. J. Leonard, T. A. Pruyne, D.
    Rankin, R. L. Seaman, F. C. Shelly.  1.5-m reflector + 10K CCD.
W84 Cerro Tololo-DECam.  Observer J. Kleyna.  4.00000-m Reflector + CCD.
Orbital elements:
2023 QR105                                          PHA, Earth MOID = 0.0123 AU
Epoch 2023 Sept. 13.0 TT = JDT 2460200.5                Veres                   
M 332.60131              (2000.0)            P               Q                  
n   0.23589256     Peri.  350.69078     +0.10642125     -0.96623130             
a   2.5941389      Node    92.93945     +0.92672503     +0.01085017             
e   0.6272873      Incl.   13.59059     +0.36035433     +0.25744777             
P   4.18           H   19.55          G   0.15           U   1                  
Residuals in seconds of arc
190904 G96  0.0   0.1+    200429 F52  0.2+  0.1-    230819 F51  0.0   0.1+
190904 G96  0.0   0.3+    200429 F52  0.0   0.2+    230819 F51  0.1-  0.2-
190904 G96  0.2-  0.3-    200429 F52  0.1-  0.1-    230903 F52  0.0   0.2-
190904 G96  0.3+  0.7-    230722 F51  0.1-  0.1-    230903 F52  0.0   0.0
191125 F52  0.3+  0.2+    230722 F51  0.0   0.2+    230903 F52  0.1-  0.0
191125 F52  0.3+  0.3+    230722 F51  0.2-  0.2+    230915 F51  0.1+  0.1+
191125 F52  0.3-  0.0     230722 F51  0.1-  0.1+    240101 W84  0.1-  0.2+
200204 F52  0.2+  0.1-    230729 F51  0.0   0.1+    240101 W84  0.1+  0.5+
200204 F52  0.2+  0.1+    230729 F51  0.1+  0.2-    240101 W84  0.2-  0.2+
200204 F52  0.3-  0.1-    230729 F51  0.2+  0.0     240101 W84  0.1-  0.2+
200322 F51  0.0   0.2+    230729 F51  0.4+  0.3+    240102 807  0.3+  0.4+
200322 F51  0.1+  0.1+    230819 F52  0.2-  0.1+    240102 807  0.1+  0.5-
200322 F51  0.0   0.5+    230819 F52  0.2-  0.2+    240102 807  0.1-  0.0
200427 F51  0.0   0.1-    230819 F52  0.2+  0.2+    240102 F52  0.0   0.0
200427 F51  0.0   0.2+    230819 F51  0.1+  0.2+    240102 F52  0.1-  0.2-
Ephemeris:
2023 QR105               a,e,i = 2.59, 0.63, 14                  q = 0.9669
Date    TT    R. A. (2000) Decl.     Delta      r    Elong.  Phase     V
2023 12 03    22 57 40.0 -29 46 57   0.5536  1.0792    84.0    65.3    20.7
...
2023 12 18    23 25 52.5 -21 35 29   0.4824  1.0060    78.5    73.5    20.5
...
2023 12 26    23 44 21.0 -15 46 37   0.4397  0.9814    76.8    77.3    20.4
...
2024 01 01    23 59 51.6 -10 32 02   0.4073  0.9706    76.2    79.7    20.3
2024 01 02    00 02 36.1 -09 34 29   0.4021  0.9695    76.2    80.0    20.3
2024 01 03    00 05 23.6 -08 35 22   0.3968  0.9686    76.2    80.4    20.3
...
2024 01 09    00 23 19.3 -02 05 37   0.3668  0.9672    76.7    81.6    20.2
...
2024 01 17    00 51 18.2 +08 13 11   0.3332  0.9765    79.0    81.4    20.0
...
2024 02 01    02 05 04.5 +31 10 53   0.3062  1.0255    88.8    73.9    19.6
M. P. C. Staff               (C) Copyright 2024 MPC           M.P.E.C. 2024-A14
    
    
More information about the Iaude
mailing list